Regional Weather Roundup
Issued by NWS

Home | Current Version | Previous Version | Graphics & Text | Print | Product List | Glossary On
Versions: 1 2 3 4 5 6 7 8 9 10 11 12 13 14 15 16 17 18 19 20 21 22 23 24 25 26 27 28 29 30 31 32 33 34 35 36 37 38 39 40 41 42 43 44 45 46 47 48 49 50
000
ASUS43 KIND 292059
RWRIN

WEATHER ROUNDUP FOR INDIANA
NATIONAL WEATHER SERVICE INDIANAPOLIS IN
400 PM EST THU JAN 29 2015

NOTE: "FAIR" INDICATES FEW OR NO CLOUDS BELOW 12,000 FEET WITH NO
SIGNIFICANT WEATHER AND/OR OBSTRUCTIONS TO VISIBILITY.

* - STATION DOES NOT REPORT WEATHER SUCH AS PRECIPITATION OR FOG.

+ - STATION NOT QUALITY CONTROLLED BY THE NATIONAL WEATHER SERVICE.
    USE DATA WITH CAUTION...ESPECIALLY DEWPOINT AND RELATIVE
    HUMIDITY OBSERVATIONS.

INZ001>003-010>013-019-020-292200-
NORTHWEST INDIANA

CITY           SKY/WX    TMP DP  RH WIND       PRES   REMARKS
GARY /AIRPORT/ CLOUDY    36  25  64 NW12G23   30.02R
VALPARAISO     NOT AVBL

$$

LMZ046-743>745-292200-
SOUTHERN LAKE MICHIGAN

STATION/POSITION TIME  TEMP WIND        PRES
                       AIR  DIR/SP/G
                 (UTC) (F)  (DEG/KT/KT) (MB)
MICHIGAN CITY    2000   33  310/ 25/ 31   N/A

$$

INZ004-005-014>016-021>024-292200-
NORTH CENTRAL INDIANA

CITY           SKY/WX    TMP DP  RH WIND       PRES   REMARKS
ELKHART        DRIZZLE   34  27  75 NW12G25   29.92R WCI  25
GOSHEN         CLOUDY    34  28  79 NW17G28   29.90R WCI  23
SOUTH BEND     CLOUDY    33  29  85 NW17G28   29.94R FOG     WCI  22

$$

INZ006>009-017-018-025>027-292200-
NORTHEAST INDIANA

CITY           SKY/WX    TMP DP  RH WIND       PRES   REMARKS
ANGOLA *+      CLOUDY    34  28  80 NW12      29.84R WCI  25
FORT WAYNE     DRIZZLE   33  30  88 W17G25    29.89R FOG     WCI  22

$$

INZ028-029-035-036-043>045-051>053-292200-
WEST CENTRAL INDIANA

CITY           SKY/WX    TMP DP  RH WIND       PRES   REMARKS
GREENCASTLE +  CLOUDY    34  28  80 W13G21    30.04R HAZE    WCI  25
LAFAYETTE      CLOUDY    34  27  75 NW16G25   30.02R WCI  24
TERRE HAUTE    CLOUDY    36  29  75 NW20      30.08R

$$

INZ030>032-037>040-046>048-054>057-064-065-292200-
CENTRAL INDIANA

CITY           SKY/WX    TMP DP  RH WIND       PRES   REMARKS
COLUMBUS       CLOUDY    34  30  86 W12       30.01R FOG     WCI  25
INDIANAPOLIS   CLOUDY    32  29  88 W23G32    30.01R FOG     WCI  19
-EAGLE CREEK   CLOUDY    34  29  82 NW21G28   29.99R WCI  22
KOKOMO *+      CLOUDY    34  27  75 NW22      29.96R WCI  22
MT COMFORT *+  CLOUDY    34  34 100 NW17G26   29.99R WCI  23
SHELBYVILLE    CLOUDY    35  31  85 W18       29.98R FOG     WCI  24

$$

INZ033-034-041-042-049-050-058-059-292200-
EAST CENTRAL INDIANA

CITY           SKY/WX    TMP DP  RH WIND       PRES   REMARKS
MUNCIE         CLOUDY    33  30  88 NW20G28   29.93R FOG     WCI  21

$$

INZ060-061-067>069-081>083-085>088-292200-
SOUTHWEST INDIANA

CITY           SKY/WX    TMP DP  RH WIND       PRES   REMARKS
EVANSVILLE     CLOUDY    41  32  70 W7        30.14R
HUNTINGBURG *+ PTSUNNY   39  30  70 NW13      30.11R

$$

INZ062-063-066-070>080-084-089>092-292200-
SOUTH CENTRAL AND SOUTHEAST INDIANA

CITY           SKY/WX    TMP DP  RH WIND       PRES   REMARKS
BLOOMINGTON    CLOUDY    36  31  82 W16G23    30.04R HAZE
SEYMOUR +      CLOUDY    37  32  81 W14G22    30.04R

$$




USA.gov is the U.S. government's official web portal to all federal, state and local government web resources and services.